GSAT-9

Last updated on Thu Nov 21 2024 00:02:43 GMT+0000 (Coordinated Universal Time)

1 42695U 17024A 24325.54938066 -.00000285 00000+0 00000+0 0 9991 2 42695 0.0732 267.3200 0001904 320.3585 127.4627 1.00270726 27553
UTC large
Height (km)
Speed (km/s)
/
Latitude / Longitude
Inclination (degrees)
Orbital Period (minutes)
Azimuth
Elevation
Range (km)
Doppler Factor

Next 0 passes for location: London (51.5072 / 0.1276)

Sorry there are no passes over London.